Regional Weather Roundup
Issued by NWS Glasgow, MT

Home | Current Version | Previous Version | Text Only | Print | Product List | Glossary On
Versions: 1 2 3 4 5 6 7 8 9 10 11 12 13 14 15 16 17 18 19 20 21 22 23 24 25 26 27 28 29 30 31 32 33 34 35 36 37 38 39 40 41 42 43 44 45 46 47 48 49
000
ASUS45 KGGW 020915
RWRGGW
HOURLY REGIONAL WEATHER ROUNDUP FOR NORTHEAST MONTANA
NATIONAL WEATHER SERVICE GLASGOW MONTANA
300 AM MDT TUE JUN 02 2015

NOTE: "FAIR" INDICATES FEW OR NO CLOUDS BELOW 12,000 FEET WITH NO
SIGNIFICANT WEATHER AND/OR OBSTRUCTIONS TO VISISBILITY.

NORTHEAST MONTANA


CITY           SKY/WX    TMP DP  RH WIND       PRES   REMARKS
GLASGOW        CLOUDY    63  42  46 N9        29.84R
PLENTYWOOD       N/A     63  44  50 NE17G25     N/A
WOLF POINT     CLOUDY    65  44  46 NE17      29.79F
JORDAN           N/A     56  54  93 N14       29.83F
WINNETT          N/A     58  54  86 NE12G20     N/A
SIDNEY         CLOUDY    63  57  82 N13       29.78F
GLENDIVE       CLOUDY    63  57  82 E5        29.77R
MALTA            N/A     61  49  64 E3          N/A
SCOBEY           N/A     58  42  55 NE17G24   29.86S
OPHEIM           N/A     54  41  62 N15       29.65F

FORT PECK REPORTS


CITY           SKY/WX    TMP DP  RH WIND       PRES   REMARKS
FORT PECK        N/A     63  42  46 NE18        N/A
THE PINES        N/A     63  42  46 N8G22       N/A

SOUTHEAST MONTANA


CITY           SKY/WX    TMP DP  RH WIND       PRES   REMARKS
BILLINGS       MOCLDY    55  52  89 W7        29.88F
MILES CITY     CLOUDY    60  60 100 N16       29.75F
BAKER          CLOUDY    60  56  86 S8        29.81F
LIVINGSTON     CLEAR     51  44  77 SE3       29.92F

CENTRAL MONTANA


CITY           SKY/WX    TMP DP  RH WIND       PRES   REMARKS
HAVRE          LGT RAIN  58  48  69 SE15      29.90R
LEWISTOWN      CLOUDY    55  52  89 CALM      29.89F
GREAT FALLS    MOCLDY    53  51  93 CALM      29.86F
CUT BANK       HVY RAIN  54  53  97 E14       29.90S FOG
HELENA         MOCLDY    52  49  89 W8        29.90R
BUTTE          MOCLDY    46  42  86 W6        29.98S
BOZEMAN        CLEAR     47  44  90 S6        29.92F

WESTERN MONTANA


CITY           SKY/WX    TMP DP  RH WIND       PRES   REMARKS
MISSOULA       CLOUDY    53  50  89 E5        29.91S
KALISPELL      NOT AVBL

NORTH DAKOTA


CITY           SKY/WX    TMP DP  RH WIND       PRES   REMARKS
WILLISTON      CLOUDY    63  56  78 NE12      29.82F
DICKINSON      LGT RAIN  59  56  89 NE17      29.82F
MINOT          CLOUDY    59  57  93 NW6       29.81R
BISMARCK       LGT RAIN  62  58  86 N7        29.84S

SOUTHERN SASKATCHEWAN


CITY           SKY/WX    TMP DP  RH WIND       PRES   REMARKS
REGINA         PTCLDY    52  45  76 NE10      29.91F
ESTEVAN        CLOUDY    54  48  82 N8        29.86R
SWIFT CURRENT  CLEAR     52  43  71 E8        29.93S



USA.gov is the U.S. government's official web portal to all federal, state and local government web resources and services.